Location: Dumbr?vi?a
(45.8833°N, 22.7000°E)
Time: 15:46:35
(UTC+00:00)

Lacrosse 4 Rocket - Pass Details

Date: 03 March 2021
Orbit: 537 x 620 km, 68.0° (Epoch: 11 April)

Event Time Altitude Azimuth Distance (km) Brightness Sun altitude
Rises 19:11:14 0° 225° (SW) 2,826 5.2 -30.2°
Reaches altitude 10° 19:13:31 10° 231° (SW) 1,940 4.4 -30.6°
Enters shadow 19:14:34 17° 236° (SW) 1,551 3.9 -30.7°
